Location: Avon School (historical)
(37.7514°N, 90.2201°W)
Time: 13:20:15
(UTC+00:00)

Transit 2A Rocket - Pass Details

Date: 15 December 2025
Orbit: 581 x 903 km, 66.7° (Epoch: 13 January)

Event Time Altitude Azimuth Distance (km) Brightness Sun altitude
Rises 12:16:50 0° 165° (SSE) 3,211 8.8 -10.2°
Reaches altitude 10° 12:19:47 10° 148° (SSE) 2,351 8.4 -9.6°
Maximum altitude 12:23:33 19° 104° (ESE) 1,857 8.3 -8.9°
Drops below altitude 10° 12:27:30 10° 60° (ENE) 2,494 8.2 -8.2°
Sets 12:30:43 0° 44° (NE) 3,477 8.7 -7.6°
